When you browse on this site, cookies collect data to enhance your experience and personalize the content and advertising you see.
Visit our Privacy Policy to learn more. By continuing to use the site, you agree to this use of cookies and data.
  • în România
  • Lista ţărilor
  • Pe 7 zile
  • Temperatura apei
  • Meteo pe hartă
  • Widget-uri
  • user-avatar
    Intrare

    Meteo pe oră la Rawicz

    Astăzi, 13 Decembrie, Vineri

    Timp Temperatura Precipitaţii Vânt Presiune Umiditate
    00:00 -1°C° 0 mm 3 m/s 741 mmHg 75%
    01:00 -2°C° 0 mm 4 m/s 740 mmHg 75%
    02:00 -2°C° 0 mm 4 m/s 739 mmHg 78%
    03:00 -2°C° 0 mm 4 m/s 738 mmHg 82%
    04:00 -1°C° 0 mm 4 m/s 737 mmHg 86%
    05:00 -1°C° 0 mm 4 m/s 736 mmHg 89%
    06:00 -1°C° 0 mm 4 m/s 735 mmHg 92%
    07:00 -1°C° 0 mm 4 m/s 734 mmHg 94%
    08:00 -1°C° 0 mm 4 m/s 734 mmHg 90%
    09:00 0°C° 0 mm 5 m/s 733 mmHg 85%
    10:00 +1°C° 0 mm 5 m/s 732 mmHg 81%
    11:00 +1°C° 0 mm 5 m/s 731 mmHg 80%
    12:00 +2°C° 0 mm 5 m/s 731 mmHg 79%
    13:00 +2°C° 0 mm 5 m/s 730 mmHg 79%
    14:00 +2°C° 0 mm 5 m/s 730 mmHg 78%
    15:00 +1°C° 0 mm 5 m/s 730 mmHg 77%
    16:00 +1°C° 0 mm 4 m/s 730 mmHg 76%
    17:00 0°C° 0 mm 4 m/s 730 mmHg 78%
    18:00 -1°C° 0 mm 4 m/s 730 mmHg 79%
    19:00 -1°C° 0 mm 4 m/s 730 mmHg 80%
    20:00 -1°C° 0 mm 4 m/s 731 mmHg 81%
    21:00 -1°C° 0 mm 4 m/s 731 mmHg 81%
    22:00 -1°C° 0 mm 4 m/s 731 mmHg 82%
    23:00 -1°C° 0 mm 4 m/s 732 mmHg 82%

    Mâine, 14 Decembrie, Sâmbătă

    Timp Temperatura Precipitaţii Vânt Presiune Umiditate
    00:00 -1°C° 0 mm 5 m/s 732 mmHg 83%
    01:00 0°C° 0 mm 5 m/s 732 mmHg 83%
    02:00 0°C° 0 mm 5 m/s 732 mmHg 82%
    03:00 -1°C° 0 mm 6 m/s 732 mmHg 80%
    04:00 +1°C° 0 mm 6 m/s 733 mmHg 79%
    05:00 +1°C° 0 mm 6 m/s 733 mmHg 80%
    06:00 +1°C° 0 mm 6 m/s 733 mmHg 81%
    07:00 +1°C° 0 mm 6 m/s 734 mmHg 83%
    08:00 +2°C° 0.1 mm 5 m/s 734 mmHg 84%
    09:00 +3°C° 0.1 mm 4 m/s 735 mmHg 85%
    10:00 +3°C° 0.1 mm 4 m/s 735 mmHg 86%
    11:00 +3°C° 0 mm 5 m/s 735 mmHg 78%
    12:00 +3°C° 0 mm 6 m/s 735 mmHg 71%
    13:00 +4°C° 0 mm 7 m/s 735 mmHg 63%
    14:00 +4°C° 0.5 mm 7 m/s 735 mmHg 71%
    15:00 +3°C° 0.5 mm 7 m/s 735 mmHg 78%
    16:00 +3°C° 0.5 mm 7 m/s 735 mmHg 86%
    17:00 +2°C° 0.2 mm 8 m/s 736 mmHg 84%
    18:00 +2°C° 0.2 mm 8 m/s 737 mmHg 82%
    19:00 +2°C° 0.2 mm 8 m/s 738 mmHg 80%
    20:00 +2°C° 0 mm 7 m/s 739 mmHg 77%
    21:00 +2°C° 0 mm 6 m/s 740 mmHg 74%
    22:00 +2°C° 0 mm 5 m/s 741 mmHg 70%
    23:00 +2°C° 0 mm 5 m/s 742 mmHg 73%

    Poimâine, 15 Decembrie, Duminică

    Timp Temperatura Precipitaţii Vânt Presiune Umiditate
    00:00 +2°C° 0 mm 5 m/s 742 mmHg 76%
    01:00 +3°C° 0 mm 4 m/s 743 mmHg 79%
    02:00 +3°C° 0 mm 4 m/s 743 mmHg 80%
    03:00 +3°C° 0 mm 4 m/s 744 mmHg 81%
    04:00 +3°C° 0 mm 4 m/s 744 mmHg 83%
    05:00 +3°C° 0 mm 4 m/s 744 mmHg 84%
    06:00 +3°C° 0 mm 4 m/s 744 mmHg 85%
    07:00 +3°C° 0 mm 4 m/s 744 mmHg 86%
    08:00 +3°C° 0.2 mm 5 m/s 744 mmHg 85%
    09:00 +4°C° 0.2 mm 6 m/s 743 mmHg 84%
    10:00 +5°C° 0.2 mm 7 m/s 743 mmHg 83%
    11:00 +6°C° 0.5 mm 7 m/s 743 mmHg 79%
    12:00 +8°C° 0.5 mm 7 m/s 743 mmHg 74%
    13:00 +9°C° 0.5 mm 8 m/s 743 mmHg 70%
    14:00 +9°C° 0.2 mm 7 m/s 744 mmHg 74%
    15:00 +8°C° 0.2 mm 5 m/s 745 mmHg 77%
    16:00 +7°C° 0.2 mm 4 m/s 746 mmHg 81%
    17:00 +7°C° 0 mm 4 m/s 746 mmHg 80%
    18:00 +6°C° 0 mm 4 m/s 747 mmHg 80%
    19:00 +6°C° 0 mm 4 m/s 748 mmHg 80%
    20:00 +6°C° 0 mm 4 m/s 749 mmHg 82%
    21:00 +5°C° 0 mm 3 m/s 749 mmHg 84%
    22:00 +5°C° 0 mm 3 m/s 750 mmHg 86%
    23:00 +5°C° 0 mm 3 m/s 750 mmHg 85%

    16 Decembrie, Luni

    Timp Temperatura Precipitaţii Vânt Presiune Umiditate
    00:00 +5°C° 0 mm 4 m/s 750 mmHg 84%
    01:00 +6°C° 0 mm 4 m/s 750 mmHg 83%
    02:00 +5°C° 0 mm 3 m/s 750 mmHg 85%
    03:00 +5°C° 0 mm 3 m/s 751 mmHg 87%
    04:00 +5°C° 0 mm 3 m/s 751 mmHg 88%
    05:00 +5°C° 0 mm 3 m/s 751 mmHg 89%
    06:00 +5°C° 0 mm 3 m/s 751 mmHg 89%
    07:00 +5°C° 0 mm 3 m/s 751 mmHg 89%
    08:00 +5°C° 0 mm 3 m/s 751 mmHg 87%
    09:00 +7°C° 0 mm 3 m/s 752 mmHg 85%
    10:00 +7°C° 0 mm 3 m/s 752 mmHg 83%
    11:00 +8°C° 0 mm 3 m/s 751 mmHg 79%
    12:00 +8°C° 0 mm 3 m/s 751 mmHg 75%
    13:00 +9°C° 0 mm 3 m/s 751 mmHg 72%
    14:00 +8°C° 0 mm 3 m/s 751 mmHg 74%
    15:00 +8°C° 0 mm 3 m/s 750 mmHg 76%
    16:00 +7°C° 0 mm 3 m/s 750 mmHg 79%
    17:00 +7°C° 0 mm 3 m/s 750 mmHg 80%
    18:00 +5°C° 0 mm 3 m/s 750 mmHg 82%
    19:00 +5°C° 0 mm 4 m/s 750 mmHg 83%
    20:00 +5°C° 0 mm 4 m/s 749 mmHg 85%
    21:00 +5°C° 0 mm 4 m/s 749 mmHg 86%
    22:00 +4°C° 0 mm 3 m/s 749 mmHg 87%
    23:00 +4°C° 0 mm 3 m/s 749 mmHg 88%

    17 Decembrie, Marţi

    Timp Temperatura Precipitaţii Vânt Presiune Umiditate
    00:00 +4°C° 0 mm 3 m/s 749 mmHg 89%
    01:00 +4°C° 0 mm 3 m/s 748 mmHg 89%
    02:00 +4°C° 0 mm 3 m/s 748 mmHg 90%
    03:00 +4°C° 0 mm 3 m/s 748 mmHg 90%
    04:00 +4°C° 0 mm 3 m/s 748 mmHg 91%
    05:00 +4°C° 0 mm 3 m/s 748 mmHg 91%
    06:00 +5°C° 0 mm 2 m/s 748 mmHg 91%
    07:00 +5°C° 0 mm 2 m/s 748 mmHg 91%
    08:00 +5°C° 0 mm 2 m/s 748 mmHg 89%
    09:00 +6°C° 0 mm 2 m/s 748 mmHg 88%
    10:00 +6°C° 0 mm 2 m/s 748 mmHg 87%
    11:00 +7°C° 0 mm 2 m/s 748 mmHg 85%
    12:00 +7°C° 0 mm 2 m/s 748 mmHg 83%
    13:00 +8°C° 0 mm 2 m/s 747 mmHg 81%
    14:00 +7°C° 0 mm 2 m/s 747 mmHg 83%
    15:00 +6°C° 0 mm 2 m/s 747 mmHg 86%
    16:00 +6°C° 0 mm 2 m/s 747 mmHg 88%
    17:00 +6°C° 0 mm 2 m/s 748 mmHg 88%
    18:00 +6°C° 0 mm 1 m/s 748 mmHg 88%
    19:00 +6°C° 0 mm 1 m/s 748 mmHg 88%
    20:00 +6°C° 0 mm 1 m/s 748 mmHg 88%
    21:00 +5°C° 0 mm 2 m/s 748 mmHg 88%
    22:00 +5°C° 0 mm 2 m/s 748 mmHg 88%
    23:00 +5°C° 0 mm 2 m/s 748 mmHg 87%

    18 Decembrie, Miercuri

    Timp Temperatura Precipitaţii Vânt Presiune Umiditate
    00:00 +5°C° 0 mm 2 m/s 748 mmHg 87%
    01:00 +5°C° 0 mm 2 m/s 748 mmHg 86%
    02:00 +6°C° 0 mm 1 m/s 748 mmHg 86%
    03:00 +6°C° 0 mm 1 m/s 749 mmHg 85%
    04:00 +6°C° 0 mm 1 m/s 749 mmHg 85%
    05:00 +6°C° 0 mm 1 m/s 749 mmHg 86%
    06:00 +6°C° 0 mm 1 m/s 749 mmHg 86%
    07:00 +6°C° 0 mm 1 m/s 749 mmHg 87%
    08:00 +6°C° 0 mm 1 m/s 749 mmHg 86%
    09:00 +6°C° 0 mm 1 m/s 750 mmHg 86%
    10:00 +7°C° 0 mm 1 m/s 750 mmHg 85%
    11:00 +6°C° 0 mm 2 m/s 750 mmHg 81%
    12:00 +7°C° 0 mm 2 m/s 750 mmHg 78%
    13:00 +8°C° 0 mm 2 m/s 751 mmHg 74%
    14:00 +7°C° 0 mm 2 m/s 751 mmHg 77%
    15:00 +6°C° 0 mm 2 m/s 751 mmHg 81%
    16:00 +6°C° 0 mm 2 m/s 752 mmHg 85%
    17:00 +5°C° 0 mm 2 m/s 752 mmHg 87%
    18:00 +5°C° 0 mm 2 m/s 752 mmHg 89%
    19:00 +4°C° 0 mm 2 m/s 752 mmHg 91%
    20:00 +5°C° 0 mm 1 m/s 752 mmHg 91%
    21:00 +5°C° 0 mm 1 m/s 752 mmHg 92%
    22:00 +4°C° 0 mm 0 m/s 753 mmHg 92%
    23:00 +5°C° 0 mm 1 m/s 752 mmHg 92%
    Arată mai mult